Powrót do katalogu

TDRS 10

AktywnyŁącznośćGEO
NORAD 27566·PAYLOAD·🇺🇸 United States

Wystrzelony Dec 5, 2002 z Cape Canaveral Space Force Station

Loading…

TLE

ŚwieżeSource: Space-Track

Epoka: Sep 14, 2026, 18:46 UTC

1 27566U 02055A   26257.78220764 -.00000239  00000-0  00000-0 0  9991
2 27566  10.2656  42.3331 0012984 234.4377 324.7131  0.98864121 87081

Śledź TDRS 10 w czasie rzeczywistym z AllMySat

Download on the App Store